USPWSA-DRAGOON

导读

USPWSA-DRAGOON是美国于2025年6月23日发射的卫星,当前已在轨运行超8个月。结合美国近年太空态势感知与轨道军事部署动态,该卫星延续了美军在地球同步轨道等区域强化空间监测的布局方向,疑似承担空间态势感知任务,可对轨道目标进行近距离跟踪与识别,其发射进一步反映了美国加速推进太空军事化布局,引发对轨道安全与全球太空治理的相关关注。

Basic Information
目录编号:
64542
目录名称:
USPWSA-DRAGOON
国际标识:
2025-135Q
轨道中心:
EARTH
卫星名称:
USPWSA-DRAGOON
卫星全名:
USPWSA-DRAGOON
卫星状态:
在轨 (已飞行439 天)
发射日期:
2025-06-23 UTC
国别 :
美国 (US)
星等 :
--
Orbit Information
数据来源 国际轨道数据
星历时间: 2026-09-05T11:36:57+0800
6小时前
查看轨道信息
半长轴: 6862.348km
偏心率: 0.0001378
轨道倾角: 97.476°
近地点辐角 236.680°
升交点赤经 4.359°
平近点角 123.430°
近地点: 483.265km
远地点: 485.157km
周期: 94.291分钟
每日圈数: 15.271923
Detailed Information
使用方式:
暂无
2D Orbit Map
3D Orbit Map
Orbit Altitude Analysis Chart
Orbit Inclination Analysis Chart
Orbit Comprehensive Analysis Chart
View Comprehensive Chart
Conjunction Data List
Event ID Objects TCA Miss Dist (km) Collision Risk Probability Collision Risk Index (CRI) Action
CDM_260906-175805-269006-454221
2026-09-06T
17:58:28+0000
1.140 km
极远距离
1.067335E-5 中风险 0.56